Home > Weather > Częstochowa > Past weeks

Flag for Poland Weather for the Past 2 Weeks in Częstochowa, Poland

Now
36 °F

Clear.


Feels Like: 28 °F
Forecast: 42 / 51 °F
Wind: 10 mph from Southeast

Location: Katowice Airport

Current Time: Feb 7, 2016 at 9:35:26 AM

Latest Report: Feb 7, 2016 at 9:00 AM


Visibility: 6 mi

Pressure: 29.86 "Hg

Humidity: 81%

Dew point: 30 °F

Location of CzęstochowaLocation

Historic Weather in Częstochowa — Graph

°F

Częstochowa Temperature Yesterday

Maximum temperature yesterday: 45 °F (at 12:30 PM)
Minimum temperature yesterday: 32 °F (at 12:00 AM)
Average temperature yesterday: 39 °F

High & Low Weather Summary for the Past Weeks

 TemperatureHumidityPressure
High54 °F (Jan 30, 2:00 PM)100% (Jan 24, 2:30 AM)30.42 "Hg (Jan 24, 2:30 AM)
Low10 °F (Jan 23, 8:00 AM)44% (Jan 30, 2:30 PM)29.62 "Hg (Jan 31, 3:00 AM)
Average38 °F83%30.08 "Hg
* Reported Jan 23 8:00 AM — Feb 7 8:30 AM, Częstochowa, Weather by CustomWeather, © 2016

Note: Actual official high and low records may vary slightly from our data, if they occured in-between our weather recording intervals... More about our weather records

Advertising

Częstochowa Weather History for the Previous 24 Hours

 ConditionsComfort  
Time TempWeatherWind HumidityBarometerVisibility
8:30 AM
Sun, Feb 7
34 °FClear.9 mph81%29.89 "Hg6 mi
8:00 AM34 °FSunny.9 mph81%29.89 "Hg10 mi
7:30 AM36 °FSunny.12 mph75%29.89 "Hg10 mi
7:00 AM34 °FClear.10 mph81%29.89 "Hg10 mi
6:30 AM34 °FPassing clouds.9 mph81%29.89 "HgN/A
6:00 AM34 °FClear.8 mph81%29.89 "Hg4 mi
5:30 AM32 °FClear.7 mph87%29.92 "Hg4 mi
5:00 AM32 °FClear.8 mph87%29.92 "Hg5 mi
4:30 AM36 °FClear.7 mph81%29.92 "Hg10 mi
4:00 AM36 °FClear.9 mph75%29.95 "Hg10 mi
3:30 AM36 °FClear.8 mph81%29.95 "Hg10 mi
3:00 AM37 °FClear.9 mph75%29.95 "Hg10 mi
2:30 AM37 °FClear.9 mph75%29.98 "Hg10 mi
2:00 AM36 °FClear.9 mph81%29.98 "Hg10 mi
1:30 AM36 °FClear.10 mph81%29.98 "Hg10 mi
1:00 AM34 °FClear.8 mph87%30.01 "Hg10 mi
12:00 AM36 °FClear.5 mph87%30.01 "Hg4 mi
11:00 PM
Sat, Feb 6
36 °FFog.7 mph87%30.04 "Hg3 mi
10:00 PM37 °FClear.7 mph81%30.04 "Hg5 mi
9:30 PM37 °FClear.6 mph87%30.04 "Hg5 mi
9:00 PM37 °FClear.7 mph87%30.07 "Hg4 mi
8:30 PM37 °FFog.6 mph87%30.07 "Hg3 mi
8:00 PM37 °FClear.6 mph87%30.07 "Hg4 mi
7:30 PM39 °FClear.5 mph81%30.07 "Hg4 mi
7:00 PM39 °FClear.6 mph81%30.07 "Hg10 mi
6:30 PM39 °FClear.8 mph81%30.07 "Hg10 mi
6:00 PM39 °FClear.7 mph81%30.07 "Hg10 mi
5:30 PM41 °FClear.8 mph76%30.09 "Hg10 mi
5:00 PM43 °FClear.8 mph76%30.09 "Hg10 mi
4:30 PM45 °FSunny.9 mph71%30.09 "Hg10 mi
4:00 PM45 °FSunny.8 mph76%30.09 "Hg10 mi
3:30 PM45 °FSunny.10 mph76%30.09 "Hg10 mi
3:00 PM45 °FPassing clouds.10 mph76%30.12 "HgN/A
2:30 PM45 °FScattered clouds.13 mph76%30.12 "HgN/A
2:00 PM43 °FPartly sunny.15 mph81%30.15 "HgN/A
1:30 PM45 °FScattered clouds.17 mph76%30.15 "HgN/A
1:00 PM45 °FScattered clouds.12 mph76%30.18 "HgN/A
12:30 PM45 °FPassing clouds.14 mph76%30.18 "HgN/A
12:00 PM43 °FSunny.13 mph76%30.18 "Hg10 mi
11:30 AM43 °FSunny.12 mph76%30.18 "Hg10 mi
11:00 AM41 °FBroken clouds.14 mph76%30.18 "HgN/A
10:30 AM41 °FPartly sunny.10 mph76%30.21 "HgN/A
10:00 AM39 °FPartly sunny.9 mph81%30.21 "HgN/A
9:30 AM37 °FPartly sunny.9 mph81%30.21 "HgN/A
9:00 AM37 °FPartly sunny.8 mph81%30.21 "HgN/A
Weather by CustomWeather, © 2016

See weather overviewHow to use our weather pages